AU707 Weather Reports


Display with metric or nautical units.
time (UTC)temp
F
wind
direction
speed
MPH
gust
MPH
rain 1hr
in
rain 24hr
in
rain mn
in
humidity
%
barometer
mb
20200713231837 77 126 2.0 4.0 0.00 0.00 0.00 23 1023.3
20200713231643 77 132 2.0 5.0 0.00 0.00 0.00 23 1007.8
20200713231343 77 152 2.0 5.0 0.00 0.00 0.00 25 1023.3
20200713230844 77 129 2.0 3.0 0.00 0.00 0.00 28 1023.3
20200713230326 77 136 2.0 6.0 0.00 0.00 0.00 26 1023.4
20200713230109 77 140 1.0 6.0 0.00 0.00 0.00 25 1007.9
20200713225826 77 140 2.0 6.0 0.00 0.00 0.00 23 1023.4
20200713225338 77 140 2.0 4.0 0.00 0.00 0.00 20 1023.4
20200713224838 77 131 2.0 4.0 0.00 0.00 0.00 21 1023.4
20200713224654 77 128 1.0 4.0 0.00 0.00 0.00 19 1007.9
20200713224346 77 123 2.0 4.0 0.00 0.00 0.00 20 1023.5
20200713223831 77 129 2.0 6.0 0.00 0.00 0.00 19 1023.5
20200713223334 77 148 3.0 6.0 0.00 0.00 0.00 17 1023.5
20200713223116 77 132 2.0 3.0 0.00 0.00 0.00 21 1008.0
20200713222841 77 132 2.0 3.0 0.00 0.00 0.00 20 1023.6
20200713222343 77 200 2.0 6.0 0.00 0.00 0.00 18 1023.6
20200713221850 77 119 3.0 6.0 0.00 0.00 0.00 18 1023.6
20200713221608 76 125 2.0 4.0 0.00 0.00 0.00 18 1008.1
20200713221332 77 130 2.0 4.0 0.00 0.00 0.00 20 1023.6
20200713220837 77 130 2.0 4.0 0.00 0.00 0.00 18 1023.6
20200713220411 78 137 2.0 4.0 0.00 0.00 0.00 13 1023.8
20200713220024 78 130 2.0 4.0 0.00 0.00 0.00 14 1023.8
20200713214925 78 115 2.0 7.0 0.00 0.00 0.00 14 1023.9
20200713214625 77 124 1.0 7.0 0.00 0.00 0.00 16 1008.3
20200713214334 78 155 2.0 7.0 0.00 0.00 0.00 16 1023.9
20200713213836 78 132 2.0 4.0 0.00 0.00 0.00 16 1024.0
20200713213343 77 146 1.0 4.0 0.00 0.00 0.00 20 1024.0
20200713213022 77 128 2.0 4.0 0.00 0.00 0.00 18 1008.4
20200713212843 77 119 2.0 4.0 0.00 0.00 0.00 17 1024.0
20200713212351 77 117 2.0 6.0 0.00 0.00 0.00 13 1024.0
20200713211834 77 144 2.0 4.0 0.00 0.00 0.00 18 1024.1
20200713211538 77 127 2.0 4.0 0.00 0.00 0.00 19 1008.4
20200713211332 77 135 2.0 3.0 0.00 0.00 0.00 19 1024.2
20200713210833 77 132 2.0 6.0 0.00 0.00 0.00 18 1024.2
20200713210342 77 119 3.0 6.0 0.00 0.00 0.00 19 1024.2
20200713210013 76 125 2.0 6.0 0.00 0.00 0.00 20 1008.4
20200713205843 77 134 2.0 6.0 0.00 0.00 0.00 20 1024.2
20200713205351 77 134 3.0 6.0 0.00 0.00 0.00 20 1024.2
20200713204832 76 142 2.0 6.0 0.00 0.00 0.00 21 1024.3
20200713204507 76 117 2.0 6.0 0.00 0.00 0.00 23 1008.5
20200713204332 76 115 3.0 6.0 0.00 0.00 0.00 22 1024.3
20200713203842 77 133 2.0 6.0 0.00 0.00 0.00 23 1024.3
20200713203342 77 133 2.0 7.0 0.00 0.00 0.00 25 1024.3
20200713202842 76 137 2.0 6.0 0.00 0.00 0.00 25 1024.3
20200713202351 76 124 2.0 6.0 0.00 0.00 0.00 25 1024.4
20200713201831 76 121 2.0 4.0 0.00 0.00 0.00 27 1024.4
20200713201612 75 141 2.0 4.0 0.00 0.00 0.00 26 1008.6
20200713201332 76 134 2.0 4.0 0.00 0.00 0.00 27 1024.4
20200713200841 76 147 2.0 4.0 0.00 0.00 0.00 26 1024.5
20200713200340 76 140 2.0 4.0 0.00 0.00 0.00 26 1024.5
20200713200149 75 126 2.0 4.0 0.00 0.00 0.00 26 1008.6
20200713195843 76 134 2.0 3.0 0.00 0.00 0.00 25 1024.5
20200713195344 76 132 2.0 4.0 0.00 0.00 0.00 27 1024.4
20200713194845 75 135 2.0 4.0 0.00 0.00 0.00 26 1024.4
20200713194648 75 144 2.0 4.0 0.00 0.00 0.00 26 1008.4
20200713194328 75 142 2.0 4.0 0.00 0.00 0.00 26 1024.4
20200713193836 75 142 2.0 4.0 0.00 0.00 0.00 26 1024.4
20200713193342 75 133 2.0 6.0 0.00 0.00 0.00 27 1024.4
20200713193116 75 131 1.0 6.0 0.00 0.00 0.00 28 1008.4
20200713192842 76 130 2.0 6.0 0.00 0.00 0.00 26 1024.4
20200713192343 75 119 2.0 4.0 0.00 0.00 0.00 28 1024.4
20200713191855 75 136 2.0 4.0 0.00 0.00 0.00 29 1024.3
20200713191640 75 157 2.0 7.0 0.00 0.00 0.00 28 1008.3
20200713191333 75 126 2.0 7.0 0.00 0.00 0.00 30 1024.3
20200713190837 75 146 2.0 4.0 0.00 0.00 0.00 31 1024.3
20200713190336 74 122 2.0 4.0 0.00 0.00 0.00 30 1024.3
20200713190107 74 126 2.0 6.0 0.00 0.00 0.00 30 1008.2
20200713185843 74 128 2.0 6.0 0.00 0.00 0.00 30 1024.3
20200713185344 75 123 3.0 5.0 0.00 0.00 0.00 30 1024.3
20200713184826 75 129 2.0 4.0 0.00 0.00 0.00 31 1024.3
20200713184540 74 142 2.0 4.0 0.00 0.00 0.00 30 1008.3
20200713184334 75 142 2.0 4.0 0.00 0.00 0.00 30 1024.3
20200713183837 75 141 2.0 6.0 0.00 0.00 0.00 26 1024.2
20200713183345 75 123 3.0 7.0 0.00 0.00 0.00 27 1024.2
20200713183042 74 123 3.0 7.0 0.00 0.00 0.00 24 1008.1
20200713182839 75 115 3.0 7.0 0.00 0.00 0.00 24 1024.1
20200713182338 75 123 3.0 6.0 0.00 0.00 0.00 27 1024.2
20200713181846 75 125 3.0 6.0 0.00 0.00 0.00 28 1024.2
20200713181521 75 119 2.0 4.0 0.00 0.00 0.00 28 1008.1
20200713181330 76 145 3.0 6.0 0.00 0.00 0.00 23 1024.1
20200713180827 76 134 2.0 6.0 0.00 0.00 0.00 23 1024.1
20200713180335 76 130 2.0 6.0 0.00 0.00 0.00 20 1024.1
20200713180014 75 116 2.0 6.0 0.00 0.00 0.00 17 1008.1
20200713175836 76 143 2.0 7.0 0.00 0.00 0.00 21 1024.0
20200713175345 76 140 3.0 7.0 0.00 0.00 0.00 22 1024.0
20200713174826 76 144 2.0 7.0 0.00 0.00 0.00 25 1024.0
20200713174503 75 163 2.0 5.0 0.00 0.00 0.00 25 1008.1
20200713174326 76 165 2.0 4.0 0.00 0.00 0.00 23 1024.1
20200713173836 76 146 2.0 4.0 0.00 0.00 0.00 19 1024.0
20200713173334 76 128 2.0 4.0 0.00 0.00 0.00 18 1024.0
20200713173122 75 140 2.0 4.0 0.00 0.00 0.00 21 1008.1
20200713172838 76 130 3.0 4.0 0.00 0.00 0.00 18 1024.0
20200713172345 76 136 2.0 4.0 0.00 0.00 0.00 16 1023.9
20200713171827 76 130 3.0 4.0 0.00 0.00 0.00 15 1023.8
20200713171651 75 131 1.0 3.0 0.00 0.00 0.00 14 1007.8
20200713171328 76 127 1.0 3.0 0.00 0.00 0.00 14 1023.8
20200713170837 76 126 2.0 6.0 0.00 0.00 0.00 15 1023.8
20200713170338 76 120 3.0 6.0 0.00 0.00 0.00 18 1023.7
20200713170244 75 135 2.0 4.0 0.00 0.00 0.00 20 1007.8
20200713165835 76 173 2.0 4.0 0.00 0.00 0.00 19 1023.8
20200713165345 76 133 2.0 4.0 0.00 0.00 0.00 18 1023.7
20200713164826 76 138 2.0 3.0 0.00 0.00 0.00 19 1023.7
20200713164704 75 136 1.0 4.0 0.00 0.00 0.00 18 1007.6
20200713164326 76 134 2.0 4.0 0.00 0.00 0.00 17 1023.7
20200713163835 76 134 2.0 4.0 0.00 0.00 0.00 19 1023.8
20200713163336 76 142 1.0 2.0 0.00 0.00 0.00 22 1023.7
20200713163215 75 142 1.0 3.0 0.00 0.00 0.00 23 1007.7
20200713162840 75 142 1.0 3.0 0.00 0.00 0.00 23 1023.8
20200713162341 75 134 1.0 5.0 0.00 0.00 0.00 22 1023.7
20200713161826 75 131 2.0 5.0 0.00 0.00 0.00 22 1023.7
20200713161625 74 132 1.0 3.0 0.00 0.00 0.00 21 1007.7
20200713161332 75 132 1.0 3.0 0.00 0.00 0.00 22 1023.6
20200713160833 74 132 2.0 3.0 0.00 0.00 0.00 22 1023.6
20200713160334 74 132 1.0 3.0 0.00 0.00 0.00 22 1023.7
20200713160107 73 132 1.0 3.0 0.00 0.00 0.00 22 1007.8
20200713155839 73 130 1.0 3.0 0.00 0.00 0.00 22 1023.7
20200713155341 73 130 2.0 4.0 0.00 0.00 0.00 22 1023.7
20200713154849 73 130 2.0 4.0 0.00 0.00 0.00 23 1023.6
20200713154537 73 128 1.0 4.0 0.00 0.00 0.00 24 1007.5
20200713154328 73 128 2.0 4.0 0.00 0.00 0.00 26 1023.7
20200713153829 73 128 2.0 3.0 0.00 0.00 0.00 25 1023.6
20200713153336 72 128 1.0 4.0 0.00 0.00 0.00 27 1023.5
20200713153026 72 124 1.0 4.0 0.00 0.00 0.00 27 1007.5
20200713152832 72 124 2.0 4.0 0.00 0.00 0.00 26 1023.5
20200713152333 72 121 2.0 3.0 0.00 0.00 0.00 26 1023.4
20200713151841 72 121 1.0 3.0 0.00 0.00 0.00 27 1023.5
20200713151513 71 121 1.0 3.0 0.00 0.00 0.00 26 1007.4
20200713151340 72 121 1.0 3.0 0.00 0.00 0.00 26 1023.5
20200713150849 71 119 1.0 2.0 0.00 0.00 0.00 28 1023.5
20200713150342 71 119 1.0 3.0 0.00 0.00 0.00 27 1023.5
20200713150145 71 119 1.0 3.0 0.00 0.00 0.00 26 1007.3
20200713145845 71 119 2.0 3.0 0.00 0.00 0.00 27 1023.4
20200713145346 71 118 1.0 3.0 0.00 0.00 0.00 27 1023.4
20200713144831 71 117 2.0 3.0 0.00 0.00 0.00 28 1023.4
20200713144619 70 117 0.0 3.0 0.00 0.00 0.00 28 1007.2
20200713144351 70 117 2.0 3.0 0.00 0.00 0.00 28 1023.4
20200713143832 70 115 1.0 2.0 0.00 0.00 0.00 28 1023.3
20200713143335 69 115 2.0 3.0 0.00 0.00 0.00 30 1023.2
20200713143100 69 115 1.0 3.0 0.00 0.00 0.00 30 1007.1
20200713142842 69 115 1.0 2.0 0.00 0.00 0.00 29 1023.3
20200713142345 69 115 1.0 2.0 0.00 0.00 0.00 32 1023.2
20200713141853 68 115 1.0 3.0 0.00 0.00 0.00 31 1023.3
20200713141600 67 115 0.0 3.0 0.00 0.00 0.00 32 1007.2
20200713141337 68 115 1.0 3.0 0.00 0.00 0.00 33 1023.3
20200713140840 67 115 1.0 2.0 0.00 0.00 0.00 33 1023.2
20200713140335 67 115 1.0 2.0 0.00 0.00 0.00 32 1023.2
20200713140106 67 115 0.0 2.0 0.00 0.00 0.00 33 1007.0
20200713135841 67 115 1.0 2.0 0.00 0.00 0.00 34 1023.2
20200713135342 68 115 1.0 2.0 0.00 0.00 0.00 33 1023.1
20200713134850 68 115 1.0 3.0 0.00 0.00 0.00 32 1023.1
20200713134619 68 115 0.0 3.0 0.00 0.00 0.00 31 1006.9
20200713134331 68 115 1.0 3.0 0.00 0.00 0.00 30 1023.0
20200713133832 68 115 1.0 3.0 0.00 0.00 0.00 30 1023.0
20200713133349 68 115 1.0 3.0 0.00 0.00 0.00 29 1023.0
20200713133050 68 115 1.0 3.0 0.00 0.00 0.00 30 1006.9
20200713132842 68 115 1.0 2.0 0.00 0.00 0.00 30 1023.0
20200713132344 68 115 1.0 2.0 0.00 0.00 0.00 29 1023.0
20200713131852 68 115 1.0 2.0 0.00 0.00 0.00 28 1023.0
20200713131539 68 115 1.0 2.0 0.00 0.00 0.00 29 1006.8
20200713131333 68 115 1.0 2.0 0.00 0.00 0.00 29 1022.9
20200713130833 68 115 1.0 2.0 0.00 0.00 0.00 29 1023.0
20200713130342 68 115 1.0 2.0 0.00 0.00 0.00 28 1022.9
20200713130019 68 115 1.0 4.0 0.00 0.00 0.00 28 1006.8
20200713125844 69 115 1.0 4.0 0.00 0.00 0.00 28 1022.9
20200713125352 68 115 1.0 4.0 0.00 0.00 0.00 28 1022.8
20200713124834 68 126 2.0 3.0 0.00 0.00 0.00 28 1022.9
20200713124528 68 126 1.0 3.0 0.00 0.00 0.00 29 1006.7
20200713124337 68 126 1.0 2.0 0.00 0.00 0.00 30 1022.8
20200713123854 69 126 1.0 2.0 0.00 0.00 0.00 29 1022.8
20200713123345 69 126 1.0 2.0 0.00 0.00 0.00 29 1022.8
20200713123022 68 126 1.0 2.0 0.00 0.00 0.00 28 1006.6
20200713122844 69 126 1.0 2.0 0.00 0.00 0.00 29 1022.8
20200713122326 69 126 1.0 4.0 0.00 0.00 0.00 29 1022.8
20200713121834 68 133 1.0 2.0 0.00 0.00 0.00 28 1022.8
20200713121511 68 133 0.0 2.0 0.00 0.00 0.00 30 1006.6
20200713121334 68 133 1.0 2.0 0.00 0.00 0.00 30 1022.8
20200713120842 68 133 1.0 2.0 0.00 0.00 0.00 29 1022.8
20200713120342 68 133 1.0 3.0 0.00 0.00 0.00 29 1022.8
20200713120201 68 133 1.0 3.0 0.00 0.00 0.00 29 1006.4
20200713115838 68 133 1.0 3.0 0.00 0.00 0.00 29 1022.7
20200713115327 68 133 1.0 3.0 0.00 0.00 0.00 29 1022.7
20200713114828 68 133 1.0 3.0 0.00 0.00 0.00 30 1022.7
20200713114625 68 133 2.0 3.0 0.00 0.00 0.00 30 1006.5
20200713114351 68 133 1.0 3.0 0.00 0.00 0.00 29 1022.8
20200713113833 68 133 2.0 3.0 0.00 0.00 0.00 30 1022.7
20200713113335 68 133 1.0 2.0 0.00 0.00 0.00 29 1022.8
20200713113109 68 133 1.0 2.0 0.00 0.00 0.00 29 1006.4
20200713112842 69 133 1.0 2.0 0.00 0.00 0.00 29 1022.7
20200713112342 69 133 2.0 2.0 0.00 0.00 0.00 28 1022.6
20200713111844 69 133 1.0 2.0 0.00 0.00 0.00 29 1022.6
20200713111626 68 133 1.0 2.0 0.00 0.00 0.00 29 1006.1
20200713111326 69 133 1.0 3.0 0.00 0.00 0.00 29 1022.6
20200713110835 69 133 1.0 3.0 0.00 0.00 0.00 28 1022.5
20200713110337 69 133 2.0 3.0 0.00 0.00 0.00 29 1022.5
20200713110114 68 133 1.0 3.0 0.00 0.00 0.00 29 1006.0
20200713105851 69 133 2.0 3.0 0.00 0.00 0.00 29 1022.5
20200713105328 69 133 1.0 3.0 0.00 0.00 0.00 30 1022.5
20200713104828 69 136 1.0 3.0 0.00 0.00 0.00 30 1022.5
20200713104549 68 136 1.0 3.0 0.00 0.00 0.00 30 1006.0
20200713104336 69 136 1.0 3.0 0.00 0.00 0.00 30 1022.5
20200713103837 69 136 2.0 3.0 0.00 0.00 0.00 30 1022.4
20200713103339 69 136 1.0 3.0 0.00 0.00 0.00 30 1022.5
20200713103130 68 136 1.0 3.0 0.00 0.00 0.00 30 1005.9
20200713102841 69 136 1.0 2.0 0.00 0.00 0.00 30 1022.6
20200713102342 69 136 2.0 2.0 0.00 0.00 0.00 29 1022.5
20200713101851 69 136 1.0 3.0 0.00 0.00 0.00 29 1022.6
20200713101553 69 130 1.0 3.0 0.00 0.00 0.00 29 1006.1
20200713101333 70 122 2.0 3.0 0.00 0.00 0.00 29 1022.5
20200713100833 70 122 1.0 3.0 0.00 0.00 0.00 29 1022.6
20200713100342 70 123 1.0 2.0 0.00 0.00 0.00 29 1022.8
20200713100150 69 123 1.0 2.0 0.00 0.00 0.00 29 1006.1
20200713095842 70 123 2.0 2.0 0.00 0.00 0.00 29 1022.7
20200713095343 69 123 1.0 4.0 0.00 0.00 0.00 30 1022.8
20200713094852 69 123 2.0 4.0 0.00 0.00 0.00 30 1022.7
20200713094531 68 126 1.0 4.0 0.00 0.00 0.00 31 1006.2
20200713094333 69 126 1.0 4.0 0.00 0.00 0.00 31 1022.8
20200713093836 69 137 1.0 3.0 0.00 0.00 0.00 31 1022.9
20200713093344 69 137 2.0 2.0 0.00 0.00 0.00 31 1022.8
20200713093038 68 137 1.0 2.0 0.00 0.00 0.00 32 1006.4
20200713092841 69 137 1.0 4.0 0.00 0.00 0.00 31 1023.0
20200713092349 69 137 2.0 4.0 0.00 0.00 0.00 31 1023.0
20200713091833 69 137 1.0 3.0 0.00 0.00 0.00 31 1023.0
20200713091513 68 137 0.0 3.0 0.00 0.00 0.00 31 1006.5
20200713091333 69 137 1.0 3.0 0.00 0.00 0.00 31 1023.1
20200713090843 68 138 1.0 3.0 0.00 0.00 0.00 31 1023.1
20200713090344 68 138 1.0 2.0 0.00 0.00 0.00 31 1023.2
20200713090020 68 138 1.0 2.0 0.00 0.00 0.00 32 1006.6
20200713085847 69 138 1.0 2.0 0.00 0.00 0.00 32 1023.2
20200713085351 69 138 1.0 3.0 0.00 0.00 0.00 32 1023.2
20200713084831 69 138 2.0 3.0 0.00 0.00 0.00 31 1023.2
20200713084416 69 138 2.0 3.0 0.00 0.00 0.00 31 1023.2
20200713083842 69 138 1.0 3.0 0.00 0.00 0.00 32 1023.3
20200713083334 69 138 2.0 2.0 0.00 0.00 0.00 32 1023.3
20200713083118 69 138 1.0 2.0 0.00 0.00 0.00 31 1006.7
20200713082835 69 138 2.0 4.0 0.00 0.00 0.00 32 1023.3
20200713082344 69 138 1.0 4.0 0.00 0.00 0.00 32 1023.4
20200713081826 69 148 2.0 2.0 0.00 0.00 0.00 31 1023.4
20200713081647 69 148 1.0 2.0 0.00 0.00 0.00 31 1006.8
20200713081327 69 148 2.0 3.0 0.00 0.00 0.00 31 1023.4
20200713080836 69 148 2.0 3.0 0.00 0.00 0.00 30 1023.4
20200713080338 69 149 2.0 3.0 0.00 0.00 0.00 30 1023.4
20200713080055 68 149 1.0 3.0 0.00 0.00 0.00 31 1006.9
20200713075842 69 150 2.0 3.0 0.00 0.00 0.00 31 1023.5
20200713075343 68 150 2.0 3.0 0.00 0.00 0.00 31 1023.4
20200713074845 68 150 1.0 2.0 0.00 0.00 0.00 31 1023.5
20200713074632 68 150 1.0 2.0 0.00 0.00 0.00 32 1006.9
20200713074329 68 150 1.0 2.0 0.00 0.00 0.00 31 1023.6
20200713073835 68 150 1.0 2.0 0.00 0.00 0.00 32 1023.6
20200713073336 68 150 1.0 2.0 0.00 0.00 0.00 32 1023.7
20200713073058 68 150 1.0 2.0 0.00 0.00 0.00 32 1007.1
20200713072842 68 150 1.0 2.0 0.00 0.00 0.00 33 1023.6
20200713072343 68 150 1.0 2.0 0.00 0.00 0.00 32 1023.8
20200713071852 68 150 1.0 3.0 0.00 0.00 0.00 32 1023.7
20200713071541 68 150 1.0 3.0 0.00 0.00 0.00 32 1007.2
20200713071333 68 150 1.0 3.0 0.00 0.00 0.00 33 1023.8
20200713070834 68 150 1.0 2.0 0.00 0.00 0.00 33 1023.8
20200713070343 68 150 1.0 2.0 0.00 0.00 0.00 33 1023.8
20200713070101 68 150 1.0 2.0 0.00 0.00 0.00 32 1007.3
20200713065842 68 150 1.0 2.0 0.00 0.00 0.00 32 1023.9
20200713065344 68 150 1.0 2.0 0.00 0.00 0.00 32 1023.9
20200713064853 68 150 2.0 2.0 0.00 0.00 0.00 33 1023.9
20200713064552 68 150 1.0 2.0 0.00 0.00 0.00 33 1007.3
20200713064332 68 150 1.0 2.0 0.00 0.00 0.00 33 1024.0
20200713063834 68 150 1.0 2.0 0.00 0.00 0.00 33 1024.0
20200713063342 68 150 1.0 2.0 0.00 0.00 0.00 33 1024.0
20200713063037 68 150 1.0 2.0 0.00 0.00 0.00 33 1007.5
20200713062842 68 150 1.0 2.0 0.00 0.00 0.00 33 1024.0
20200713062352 69 150 1.0 2.0 0.00 0.00 0.00 32 1024.0
20200713061832 69 150 1.0 2.0 0.00 0.00 0.00 32 1024.0
20200713061542 69 150 1.0 2.0 0.00 0.00 0.00 33 1007.4
20200713061332 69 150 1.0 2.0 0.00 0.00 0.00 32 1023.9
20200713060834 69 150 1.0 2.0 0.00 0.00 0.00 32 1023.9
20200713060344 69 150 1.0 2.0 0.00 0.00 0.00 33 1024.0
20200713060028 69 150 0.0 2.0 0.00 0.00 0.00 32 1007.4
20200713055843 70 150 1.0 2.0 0.00 0.00 0.00 32 1024.0
20200713055352 70 150 1.0 2.0 0.00 0.00 0.00 32 1023.9
20200713054834 70 150 1.0 2.0 0.00 0.00 0.00 31 1024.0
20200713054509 69 150 1.0 2.0 0.00 0.00 0.00 30 1007.4
20200713054340 70 150 1.0 2.0 0.00 0.00 0.00 31 1024.0
20200713053844 70 150 1.0 2.0 0.00 0.00 0.00 33 1024.1
20200713053326 70 150 1.0 3.0 0.00 0.00 0.00 32 1024.0
20200713053011 69 150 1.0 3.0 0.00 0.00 0.00 32 1007.5
20200713052827 69 150 2.0 2.0 0.00 0.00 0.00 32 1024.0
20200713052330 69 150 1.0 2.0 0.00 0.00 0.00 34 1024.1
20200713051838 70 150 1.0 2.0 0.00 0.00 0.00 34 1024.0
20200713051639 69 150 0.0 2.0 0.00 0.00 0.00 33 1007.4
20200713051341 70 150 1.0 2.0 0.00 0.00 0.00 33 1024.0
20200713050848 70 150 1.0 2.0 0.00 0.00 0.00 33 1024.1
20200713050450 69 150 1.0 2.0 0.00 0.00 0.00 33 1007.3
20200713050328 70 150 1.0 2.0 0.00 0.00 0.00 33 1024.0
20200713045854 70 150 1.0 2.0 0.00 0.00 0.00 33 1024.0
20200713045331 70 150 1.0 2.0 0.00 0.00 0.00 34 1024.0
20200713044832 70 150 1.0 2.0 0.00 0.00 0.00 33 1024.0
20200713044717 70 150 1.0 2.0 0.00 0.00 0.00 33 1007.2
20200713044334 70 150 1.0 2.0 0.00 0.00 0.00 33 1024.0
20200713043843 71 150 1.0 2.0 0.00 0.00 0.00 33 1023.8
20200713043345 71 150 1.0 2.0 0.00 0.00 0.00 32 1023.8
20200713043053 70 150 1.0 2.0 0.00 0.00 0.00 32 1007.2
20200713042852 71 150 1.0 1.0 0.00 0.00 0.00 32 1023.8
20200713042334 71 150 1.0 2.0 0.00 0.00 0.00 31 1023.8
20200713041836 71 150 1.0 2.0 0.00 0.00 0.00 32 1023.7
20200713041556 71 150 1.0 2.0 0.00 0.00 0.00 30 1006.9
20200713041342 72 150 1.0 2.0 0.00 0.00 0.00 30 1023.6
20200713040843 72 150 1.0 2.0 0.00 0.00 0.00 30 1023.6
20200713040344 73 150 1.0 2.0 0.00 0.00 0.00 30 1023.6
20200713040055 72 150 0.0 2.0 0.00 0.00 0.00 30 1006.8
20200713035851 73 150 1.0 3.0 0.00 0.00 0.00 30 1023.6
20200713035332 72 150 1.0 3.0 0.00 0.00 0.00 29 1023.6
20200713034833 72 151 1.0 2.0 0.00 0.00 0.00 30 1023.6
20200713034652 72 151 1.0 2.0 0.00 0.00 0.00 31 1006.7
20200713034342 72 151 1.0 2.0 0.00 0.00 0.00 30 1023.5
20200713033844 72 151 1.0 2.0 0.00 0.00 0.00 33 1023.5
20200713033326 72 151 1.0 2.0 0.00 0.00 0.00 34 1023.4
20200713033038 71 151 1.0 2.0 0.00 0.00 0.00 35 1006.6
20200713032835 72 151 1.0 2.0 0.00 0.00 0.00 34 1023.5
20200713032337 72 151 1.0 2.0 0.00 0.00 0.00 36 1023.5
20200713031839 73 151 1.0 2.0 0.00 0.00 0.00 36 1023.4
20200713031632 72 151 1.0 2.0 0.00 0.00 0.00 35 1006.3
20200713031332 73 151 1.0 2.0 0.00 0.00 0.00 36 1023.4
20200713030833 73 151 1.0 2.0 0.00 0.00 0.00 35 1023.4
20200713030334 73 151 1.0 2.0 0.00 0.00 0.00 35 1023.4
20200713030107 73 151 1.0 2.0 0.00 0.00 0.00 36 1006.3
20200713025843 74 151 1.0 2.0 0.00 0.00 0.00 35 1023.3
20200713025342 74 151 1.0 3.0 0.00 0.00 0.00 35 1023.3
20200713024853 74 151 1.0 3.0 0.00 0.00 0.00 35 1023.4
20200713024625 74 151 1.0 3.0 0.00 0.00 0.00 34 1006.1
20200713024332 75 240 2.0 2.0 0.00 0.00 0.00 35 1023.4
20200713023833 75 240 1.0 2.0 0.00 0.00 0.00 37 1023.4
20200713023344 76 240 1.0 2.0 0.00 0.00 0.00 38 1023.4
20200713023038 75 240 1.0 2.0 0.00 0.00 0.00 38 1006.2
20200713022842 76 240 1.0 2.0 0.00 0.00 0.00 38 1023.4
20200713022344 76 240 1.0 2.0 0.00 0.00 0.00 37 1023.3
20200713021852 76 240 1.0 2.0 0.00 0.00 0.00 36 1023.4
20200713021608 76 240 1.0 2.0 0.00 0.00 0.00 37 1006.1
20200713021333 77 240 1.0 2.0 0.00 0.00 0.00 37 1023.4
20200713020833 77 240 1.0 3.0 0.00 0.00 0.00 36 1023.4
20200713020342 77 240 1.0 3.0 0.00 0.00 0.00 37 1023.4
20200713020031 77 240 1.0 3.0 0.00 0.00 0.00 37 1005.9
20200713015842 78 240 2.0 3.0 0.00 0.00 0.00 36 1023.2
20200713015351 78 242 1.0 2.0 0.00 0.00 0.00 37 1023.2
20200713014832 78 242 1.0 2.0 0.00 0.00 0.00 37 1023.2
20200713014525 77 242 0.0 2.0 0.00 0.00 0.00 36 1005.8
20200713014332 78 242 1.0 2.0 0.00 0.00 0.00 36 1023.2
20200713013834 78 243 1.0 2.0 0.00 0.00 0.00 36 1023.2
20200713013341 79 243 1.0 2.0 0.00 0.00 0.00 36 1023.2
20200713013012 78 243 0.0 2.0 0.00 0.00 0.00 36 1005.9
20200713012842 79 243 1.0 2.0 0.00 0.00 0.00 36 1023.2
20200713012349 79 243 1.0 2.0 0.00 0.00 0.00 35 1023.2
20200713011833 80 243 1.0 3.0 0.00 0.00 0.00 34 1023.2
20200713011501 79 246 1.0 3.0 0.00 0.00 0.00 34 1005.9
20200713011334 80 246 1.0 2.0 0.00 0.00 0.00 34 1023.3
20200713010841 80 246 1.0 2.0 0.00 0.00 0.00 33 1023.2
20200713010343 81 246 1.0 2.0 0.00 0.00 0.00 32 1023.2
20200713010224 81 246 0.0 2.0 0.00 0.00 0.00 32 1005.9
20200713005844 82 246 1.0 2.0 0.00 0.00 0.00 32 1023.3
20200713005349 82 249 1.0 2.0 0.00 0.00 0.00 32 1023.3
20200713004833 82 249 1.0 2.0 0.00 0.00 0.00 32 1023.2
20200713004635 81 249 0.0 2.0 0.00 0.00 0.00 32 1005.9
20200713004332 82 249 0.0 2.0 0.00 0.00 0.00 32 1023.3
20200713003841 82 249 0.0 2.0 0.00 0.00 0.00 32 1023.3
20200713003341 82 249 1.0 3.0 0.00 0.00 0.00 30 1023.4
20200713003133 82 251 0.0 3.0 0.00 0.00 0.00 30 1006.2
20200713002849 82 251 1.0 3.0 0.00 0.00 0.00 31 1023.5
20200713002330 82 127 1.0 2.0 0.00 0.00 0.00 30 1023.5
20200713001831 82 127 1.0 2.0 0.00 0.00 0.00 30 1023.6
20200713001623 82 127 1.0 2.0 0.00 0.00 0.00 29 1006.3
20200713001333 82 127 1.0 3.0 0.00 0.00 0.00 30 1023.6
20200713000842 83 127 1.0 3.0 0.00 0.00 0.00 29 1023.7
20200713000342 83 127 1.0 3.0 0.00 0.00 0.00 28 1023.7
20200712235842 83 128 1.0 4.0 0.00 0.00 0.00 29 1023.8
20200712235344 83 126 1.0 4.0 0.00 0.00 0.00 28 1023.8
20200712234852 83 118 1.0 3.0 0.00 0.00 0.00 29 1023.9
20200712234655 83 117 1.0 3.0 0.00 0.00 0.00 28 1006.6
20200712234332 83 132 1.0 3.0 0.00 0.00 0.00 28 1023.9
20200712233832 83 130 1.0 3.0 0.00 0.00 0.00 27 1023.9
20200712233332 84 227 1.0 3.0 0.00 0.00 0.00 26 1024.0
20200712233054 83 227 1.0 4.0 0.00 0.00 0.00 26 1006.9
20200712232838 84 265 1.0 4.0 0.00 0.00 0.00 26 1024.0
20200712232338 84 136 1.0 3.0 0.00 0.00 0.00 26 1024.1